Time,TemperatureF,DewpointF,PressureIn,WindDirection,WindDirectionDegrees,WindSpeedMPH,WindSpeedGustMPH,Humidity,HourlyPrecipIn,Conditions,Clouds,dailyrainin,SolarRadiationWatts/m^2,SoftwareType,DateUTC
2013-11-21 00:00:00,53.4,33.7,29.92,SE,127,1.0,5.0,47,0.00,,BKN120,0.00,0.00,VWS V14.01,2013-11-21 06:00:00,
2013-11-21 00:03:00,53.4,33.7,29.92,SE,136,2.0,4.0,47,0.00,,BKN029,0.00,0.00,VWS V14.01,2013-11-21 06:03:00,
2013-11-21 00:05:00,53.4,33.7,29.92,ESE,123,0.0,4.0,47,0.00,,BKN120,0.00,0.00,VWS V14.01,2013-11-21 06:05:00,
2013-11-21 00:08:00,53.3,33.6,29.92,SE,136,0.0,3.0,47,0.00,,BKN029,0.00,0.00,VWS V14.01,2013-11-21 06:08:00,
2013-11-21 00:10:00,53.3,34.1,29.92,East,82,3.0,4.0,48,0.00,,BKN120,0.00,0.00,VWS V14.01,2013-11-21 06:10:00,
2013-11-21 00:13:00,53.3,34.1,29.92,SE,146,3.0,5.0,48,0.00,,BKN029,0.00,0.00,VWS V14.01,2013-11-21 06:13:00,
2013-11-21 00:15:00,53.3,34.1,29.92,SSE,150,1.0,5.0,48,0.00,,BKN120,0.00,0.00,VWS V14.01,2013-11-21 06:15:00,
2013-11-21 00:18:00,53.3,34.7,29.92,ESE,119,0.0,5.0,49,0.00,,BKN036,0.00,0.00,VWS V14.01,2013-11-21 06:18:00,
2013-11-21 00:20:00,53.3,34.7,29.92,SE,127,1.0,5.0,49,0.00,,BKN120,0.00,0.00,VWS V14.01,2013-11-21 06:20:00,
2013-11-21 00:23:00,53.3,34.7,29.92,SSW,198,3.0,5.0,49,0.00,,BKN036,0.00,0.00,VWS V14.01,2013-11-21 06:23:00,
2013-11-21 00:25:00,53.3,34.7,29.92,ESE,107,0.0,5.0,49,0.00,,BKN120,0.00,0.00,VWS V14.01,2013-11-21 06:25:00,
2013-11-21 00:28:00,53.2,34.5,29.92,SSE,159,0.0,2.0,49,0.00,,BKN036,0.00,0.00,VWS V14.01,2013-11-21 06:28:00,
2013-11-21 00:30:00,53.2,34.5,29.92,SE,132,0.0,2.0,49,0.00,,BKN120,0.00,0.00,VWS V14.01,2013-11-21 06:30:00,
2013-11-21 00:33:00,53.2,35.1,29.92,SE,139,0.0,3.0,50,0.00,,BKN036,0.00,0.00,VWS V14.01,2013-11-21 06:33:00,
2013-11-21 00:35:00,53.2,34.5,29.92,SE,139,0.0,3.0,49,0.00,,BKN120,0.00,0.00,VWS V14.01,2013-11-21 06:35:00,
2013-11-21 00:38:00,53.2,35.1,29.92,SSW,199,1.0,1.0,50,0.00,,BKN036,0.00,0.00,VWS V14.01,2013-11-21 06:38:00,
2013-11-21 00:40:00,53.2,35.1,29.92,SSE,164,0.0,4.0,50,0.00,,BKN120,0.00,0.00,VWS V14.01,2013-11-21 06:40:00,
2013-11-21 00:43:00,53.2,35.1,29.92,SE,135,0.0,4.0,50,0.00,,BKN036,0.00,0.00,VWS V14.01,2013-11-21 06:43:00,
2013-11-21 00:45:00,53.2,34.5,29.92,SSE,165,2.0,5.0,49,0.00,,BKN120,0.00,0.00,VWS V14.01,2013-11-21 06:45:00,
2013-11-21 00:48:00,53.2,35.1,29.92,ESE,114,2.0,6.0,50,0.00,,BKN036,0.00,0.00,VWS V14.01,2013-11-21 06:48:00,
2013-11-21 00:50:00,53.2,35.1,29.92,SSW,192,0.0,6.0,50,0.00,,BKN120,0.00,0.00,VWS V14.01,2013-11-21 06:50:00,
2013-11-21 00:53:00,53.2,35.1,29.92,SE,139,1.0,4.0,50,0.00,,BKN036,0.00,0.00,VWS V14.01,2013-11-21 06:53:00,
2013-11-21 00:55:00,53.2,34.5,29.92,ESE,117,0.0,4.0,49,0.00,,BKN120,0.00,0.00,VWS V14.01,2013-11-21 06:55:00,
2013-11-21 00:58:00,53.2,35.1,29.92,SE,144,4.0,7.0,50,0.00,,BKN036,0.00,0.00,VWS V14.01,2013-11-21 06:58:00,
2013-11-21 01:00:00,53.2,35.6,29.92,East,90,0.0,7.0,51,0.00,,BKN120,0.00,0.00,VWS V14.01,2013-11-21 07:00:00,
2013-11-21 01:03:00,53.2,35.6,29.92,SE,126,1.0,1.0,51,0.00,,BKN026,0.00,0.00,VWS V14.01,2013-11-21 07:03:00,
2013-11-21 01:05:00,53.3,34.7,29.92,ESE,121,2.0,8.0,49,0.00,,BKN120,0.00,0.00,VWS V14.01,2013-11-21 07:05:00,
2013-11-21 01:08:00,53.3,35.2,29.92,ESE,123,2.0,4.0,50,0.00,,BKN026,0.00,0.00,VWS V14.01,2013-11-21 07:08:00,
2013-11-21 01:10:00,53.3,35.2,29.92,SE,136,3.0,4.0,50,0.00,,BKN120,0.00,0.00,VWS V14.01,2013-11-21 07:10:00,
2013-11-21 01:13:00,53.3,34.7,29.92,SSW,202,0.0,5.0,49,0.00,,BKN026,0.00,0.00,VWS V14.01,2013-11-21 07:13:00,
2013-11-21 01:15:00,53.4,35.2,29.92,SE,134,0.0,5.0,50,0.00,,BKN120,0.00,0.00,VWS V14.01,2013-11-21 07:15:00,
2013-11-21 01:18:00,53.4,35.2,29.92,SSE,166,0.0,3.0,50,0.00,,BKN026,0.00,0.00,VWS V14.01,2013-11-21 07:18:00,
2013-11-21 01:20:00,53.4,35.2,29.92,SSE,152,4.0,9.0,50,0.00,,BKN120,0.00,0.00,VWS V14.01,2013-11-21 07:20:00,
2013-11-21 01:23:00,53.4,35.2,29.92,South,176,0.0,7.0,50,0.00,,BKN026,0.00,0.00,VWS V14.01,2013-11-21 07:23:00,
2013-11-21 01:25:00,53.4,35.2,29.92,ESE,107,4.0,7.0,50,0.00,,BKN120,0.00,0.00,VWS V14.01,2013-11-21 07:25:00,
2013-11-21 01:28:00,53.5,35.3,29.92,SSE,149,3.0,6.0,50,0.00,,BKN026,0.00,0.00,VWS V14.01,2013-11-21 07:28:00,
2013-11-21 01:30:00,53.4,35.7,29.92,ESE,123,2.0,6.0,51,0.00,,BKN120,0.00,0.00,VWS V14.01,2013-11-21 07:30:00,
2013-11-21 01:34:00,53.4,35.7,29.92,South,186,4.0,4.0,51,0.00,,BKN026,0.00,0.00,VWS V14.01,2013-11-21 07:34:00,
2013-11-21 01:35:00,53.5,35.3,29.92,SE,135,0.0,4.0,50,0.00,,BKN120,0.00,0.00,VWS V14.01,2013-11-21 07:35:00,
2013-11-21 01:39:00,53.5,35.8,29.92,SSE,158,2.0,5.0,51,0.00,,BKN026,0.00,0.00,VWS V14.01,2013-11-21 07:39:00,
2013-11-21 01:40:00,53.5,35.8,29.92,SE,136,2.0,7.0,51,0.00,,BKN120,0.00,0.00,VWS V14.01,2013-11-21 07:40:00,
2013-11-21 01:44:00,53.5,35.8,29.92,SSE,154,1.0,3.0,51,0.00,,BKN026,0.00,0.00,VWS V14.01,2013-11-21 07:44:00,
2013-11-21 01:45:00,53.5,35.8,29.93,SE,132,0.0,6.0,51,0.00,,BKN120,0.00,0.00,VWS V14.01,2013-11-21 07:45:00,
2013-11-21 01:49:00,53.5,36.3,29.93,SW,217,5.0,5.0,52,0.00,,BKN026,0.00,0.00,VWS V14.01,2013-11-21 07:49:00,
2013-11-21 01:50:00,53.5,36.3,29.93,South,171,0.0,5.0,52,0.00,,BKN120,0.00,0.00,VWS V14.01,2013-11-21 07:50:00,
2013-11-21 01:54:00,53.5,35.8,29.93,South,181,0.0,3.0,51,0.00,,BKN026,0.00,0.00,VWS V14.01,2013-11-21 07:54:00,
2013-11-21 01:55:00,53.5,35.8,29.93,SSE,159,5.0,5.0,51,0.00,,BKN120,0.00,0.00,VWS V14.01,2013-11-21 07:55:00,
2013-11-21 01:59:00,53.5,35.8,29.93,SE,130,0.0,5.0,51,0.00,,BKN026,0.00,0.00,VWS V14.01,2013-11-21 07:59:00,
2013-11-21 02:00:00,53.5,35.8,29.94,SE,136,1.0,5.0,51,0.00,,BKN120,0.00,0.00,VWS V14.01,2013-11-21 08:00:00,
2013-11-21 02:04:00,53.5,35.8,29.94,SSW,193,0.0,3.0,51,0.00,,OVC035,0.00,0.00,VWS V14.01,2013-11-21 08:04:00,
2013-11-21 02:05:00,53.5,36.3,29.94,SSW,193,0.0,3.0,52,0.00,,BKN120,0.00,0.00,VWS V14.01,2013-11-21 08:05:00,
2013-11-21 02:09:00,53.5,35.8,29.94,SE,128,0.0,3.0,51,0.00,,OVC035,0.00,0.00,VWS V14.01,2013-11-21 08:09:00,
2013-11-21 02:10:00,53.5,35.8,29.94,ESE,119,0.0,3.0,51,0.00,,BKN120,0.00,0.00,VWS V14.01,2013-11-21 08:10:00,
2013-11-21 02:14:00,53.6,36.4,29.94,SSE,156,0.0,2.0,52,0.00,,OVC035,0.00,0.00,VWS V14.01,2013-11-21 08:14:00,
2013-11-21 02:15:00,53.6,36.4,29.94,SSE,156,0.0,2.0,52,0.00,,BKN120,0.00,0.00,VWS V14.01,2013-11-21 08:15:00,
2013-11-21 02:19:00,53.6,36.4,29.94,SE,124,0.0,4.0,52,0.00,,OVC035,0.00,0.00,VWS V14.01,2013-11-21 08:19:00,
2013-11-21 02:20:00,53.6,36.4,29.94,SSW,195,0.0,4.0,52,0.00,,BKN120,0.00,0.00,VWS V14.01,2013-11-21 08:20:00,
2013-11-21 02:24:00,53.6,36.4,29.94,SE,130,0.0,4.0,52,0.00,,OVC035,0.00,0.00,VWS V14.01,2013-11-21 08:24:00,
2013-11-21 02:25:00,53.6,36.4,29.94,SSE,147,4.0,4.0,52,0.00,,BKN120,0.00,0.00,VWS V14.01,2013-11-21 08:25:00,
2013-11-21 02:29:00,53.6,36.4,29.94,SSE,148,0.0,4.0,52,0.00,,OVC035,0.00,0.00,VWS V14.01,2013-11-21 08:29:00,
2013-11-21 02:30:00,53.6,36.4,29.94,SSE,161,0.0,4.0,52,0.00,,BKN120,0.00,0.00,VWS V14.01,2013-11-21 08:30:00,
2013-11-21 02:34:00,53.6,36.4,29.94,ESE,116,0.0,2.0,52,0.00,,OVC035,0.00,0.00,VWS V14.01,2013-11-21 08:34:00,
2013-11-21 02:35:00,53.6,36.4,29.94,ESE,111,3.0,5.0,52,0.00,,BKN120,0.00,0.00,VWS V14.01,2013-11-21 08:35:00,
2013-11-21 02:39:00,53.5,37.3,29.94,SE,142,0.0,3.0,54,0.00,,OVC035,0.00,0.00,VWS V14.01,2013-11-21 08:39:00,
2013-11-21 02:40:00,53.5,36.8,29.94,SE,146,0.0,4.0,53,0.00,,BKN120,0.00,0.00,VWS V14.01,2013-11-21 08:40:00,
2013-11-21 02:44:00,53.5,36.8,29.94,ESE,122,0.0,5.0,53,0.00,,OVC035,0.00,0.00,VWS V14.01,2013-11-21 08:44:00,
2013-11-21 02:45:00,53.4,37.2,29.94,SE,129,1.0,5.0,54,0.00,,BKN120,0.00,0.00,VWS V14.01,2013-11-21 08:45:00,
2013-11-21 02:49:00,53.3,37.1,29.94,SSE,155,1.0,3.0,54,0.00,,OVC035,0.00,0.00,VWS V14.01,2013-11-21 08:49:00,
2013-11-21 02:50:00,53.3,38.0,29.94,SSE,164,0.0,3.0,56,0.00,,BKN120,0.00,0.00,VWS V14.01,2013-11-21 08:50:00,
2013-11-21 02:54:00,53.3,37.6,29.94,SE,134,2.0,3.0,55,0.00,,OVC035,0.00,0.00,VWS V14.01,2013-11-21 08:54:00,
2013-11-21 02:55:00,53.2,37.5,29.94,ESE,112,0.0,3.0,55,0.00,,BKN120,0.00,0.00,VWS V14.01,2013-11-21 08:55:00,
2013-11-21 02:59:00,53.2,37.5,29.94,SE,142,0.0,3.0,55,0.00,,OVC035,0.00,0.00,VWS V14.01,2013-11-21 08:59:00,
2013-11-21 03:00:00,53.2,37.5,29.94,SE,131,6.0,6.0,55,0.00,,BKN120,0.00,0.00,VWS V14.01,2013-11-21 09:00:00,
2013-11-21 03:04:00,53.2,37.5,29.94,SE,134,3.0,6.0,55,0.00,,OVC037,0.00,0.00,VWS V14.01,2013-11-21 09:04:00,
2013-11-21 03:05:00,53.2,37.0,29.94,SE,127,2.0,6.0,54,0.00,,BKN120,0.00,0.00,VWS V14.01,2013-11-21 09:05:00,
2013-11-21 03:09:00,53.2,37.5,29.94,SE,140,0.0,3.0,55,0.00,,OVC037,0.00,0.00,VWS V14.01,2013-11-21 09:09:00,
2013-11-21 03:10:00,53.2,37.5,29.94,SSE,163,4.0,4.0,55,0.00,,BKN120,0.00,0.00,VWS V14.01,2013-11-21 09:10:00,
2013-11-21 03:14:00,53.2,37.5,29.94,SSE,157,0.0,6.0,55,0.00,,OVC037,0.00,0.00,VWS V14.01,2013-11-21 09:14:00,
2013-11-21 03:15:00,53.2,37.9,29.94,SE,138,2.0,6.0,56,0.00,,BKN120,0.00,0.00,VWS V14.01,2013-11-21 09:15:00,
2013-11-21 03:19:00,53.2,38.4,29.94,SE,142,1.0,2.0,57,0.00,,OVC037,0.00,0.00,VWS V14.01,2013-11-21 09:19:00,
2013-11-21 03:20:00,53.2,37.9,29.94,SW,225,2.0,3.0,56,0.00,,BKN120,0.00,0.00,VWS V14.01,2013-11-21 09:20:00,
2013-11-21 03:24:00,53.2,38.4,29.94,ESE,123,3.0,7.0,57,0.00,,OVC037,0.00,0.00,VWS V14.01,2013-11-21 09:24:00,
2013-11-21 03:25:00,53.2,38.4,29.94,SSE,148,3.0,7.0,57,0.00,,BKN120,0.00,0.00,VWS V14.01,2013-11-21 09:25:00,
2013-11-21 03:29:00,53.2,38.4,29.94,SSE,155,3.0,7.0,57,0.00,,OVC037,0.00,0.00,VWS V14.01,2013-11-21 09:29:00,
2013-11-21 03:30:00,53.1,38.3,29.94,SE,141,0.0,7.0,57,0.00,,BKN120,0.00,0.00,VWS V14.01,2013-11-21 09:30:00,
2013-11-21 03:34:00,53.1,38.3,29.94,SE,134,5.0,5.0,57,0.00,,OVC037,0.00,0.00,VWS V14.01,2013-11-21 09:34:00,
2013-11-21 03:35:00,53.1,38.7,29.94,SSW,202,4.0,5.0,58,0.00,,BKN120,0.00,0.00,VWS V14.01,2013-11-21 09:35:00,
2013-11-21 03:39:00,53.0,38.6,29.94,SSE,157,0.0,7.0,58,0.00,,OVC037,0.00,0.00,VWS V14.01,2013-11-21 09:39:00,
2013-11-21 03:40:00,53.0,39.1,29.94,SSW,200,0.0,7.0,59,0.00,,BKN120,0.00,0.00,VWS V14.01,2013-11-21 09:40:00,
2013-11-21 03:44:00,52.9,39.4,29.94,SSE,150,3.0,5.0,60,0.00,,OVC037,0.00,0.00,VWS V14.01,2013-11-21 09:44:00,
2013-11-21 03:45:00,52.9,39.8,29.93,SSE,159,5.0,5.0,61,0.00,,BKN120,0.00,0.00,VWS V14.01,2013-11-21 09:45:00,
2013-11-21 03:49:00,52.7,40.9,29.93,South,171,4.0,7.0,64,0.00,,OVC037,0.00,0.00,VWS V14.01,2013-11-21 09:49:00,
2013-11-21 03:50:00,52.7,41.3,29.93,SE,132,1.0,7.0,65,0.00,,BKN120,0.00,0.00,VWS V14.01,2013-11-21 09:50:00,
2013-11-21 03:54:00,52.3,42.5,29.93,SSE,155,0.0,5.0,69,0.00,,OVC037,0.00,0.00,VWS V14.01,2013-11-21 09:54:00,
2013-11-21 03:55:00,52.3,42.5,29.93,East,93,3.0,8.0,69,0.00,,BKN120,0.00,0.00,VWS V14.01,2013-11-21 09:55:00,
2013-11-21 03:59:00,51.9,43.2,29.93,South,169,0.0,6.0,72,0.00,,OVC037,0.00,0.00,VWS V14.01,2013-11-21 09:59:00,
2013-11-21 04:00:00,51.8,43.4,29.94,WSW,238,0.0,6.0,73,0.00,,BKN120,0.00,0.00,VWS V14.01,2013-11-21 10:00:00,
2013-11-21 04:05:00,51.6,43.6,29.94,SE,140,2.0,3.0,74,0.00,,OVC120,0.00,0.00,VWS V14.01,2013-11-21 10:05:00,
2013-11-21 04:10:00,51.1,44.2,29.94,SSE,153,4.0,10.0,77,0.00,,OVC120,0.00,0.00,VWS V14.01,2013-11-21 10:10:00,
2013-11-21 04:15:00,50.7,44.4,29.94,ESE,109,3.0,7.0,79,0.00,,OVC120,0.00,0.00,VWS V14.01,2013-11-21 10:15:00,
2013-11-21 04:20:00,50.4,44.8,29.93,SSE,148,0.0,4.0,81,0.00,,OVC120,0.00,0.00,VWS V14.01,2013-11-21 10:20:00,
2013-11-21 04:25:00,50.1,44.8,29.93,SSW,195,0.0,3.0,82,0.00,,OVC120,0.00,0.00,VWS V14.01,2013-11-21 10:25:00,
2013-11-21 04:30:00,50.0,45.0,29.94,South,184,0.0,2.0,83,0.00,,OVC120,0.00,0.00,VWS V14.01,2013-11-21 10:30:00,
2013-11-21 04:35:00,49.8,45.2,29.94,SE,136,0.0,4.0,84,0.00,,OVC120,0.00,0.00,VWS V14.01,2013-11-21 10:35:00,
2013-11-21 04:40:00,49.6,45.0,29.94,SE,125,0.0,2.0,84,0.00,,OVC120,0.00,0.00,VWS V14.01,2013-11-21 10:40:00,
2013-11-21 04:45:00,49.5,45.2,29.94,SSE,154,0.0,2.0,85,0.00,,OVC120,0.00,0.00,VWS V14.01,2013-11-21 10:45:00,
2013-11-21 04:50:00,49.5,45.2,29.94,SSE,152,0.0,1.0,85,0.00,,OVC120,0.00,0.00,VWS V14.01,2013-11-21 10:50:00,
2013-11-21 04:55:00,49.4,45.4,29.94,SE,130,0.0,3.0,86,0.00,,OVC120,0.00,0.00,VWS V14.01,2013-11-21 10:55:00,
2013-11-21 05:00:00,49.3,45.3,29.95,SE,136,1.0,2.0,86,0.00,,OVC120,0.00,0.00,VWS V14.01,2013-11-21 11:00:00,
2013-11-21 05:05:00,49.2,45.2,29.95,South,173,0.0,3.0,86,0.00,,OVC050,0.00,0.00,VWS V14.01,2013-11-21 11:05:00,
2013-11-21 05:10:00,49.1,45.1,29.95,SE,130,0.0,1.0,86,0.00,,OVC050,0.00,0.00,VWS V14.01,2013-11-21 11:10:00,
2013-11-21 05:15:00,49.0,45.0,29.95,SE,126,0.0,3.0,86,0.00,,OVC050,0.00,0.00,VWS V14.01,2013-11-21 11:15:00,
2013-11-21 05:20:00,49.0,45.0,29.95,ESE,114,1.0,4.0,86,0.00,,OVC050,0.00,0.00,VWS V14.01,2013-11-21 11:20:00,
2013-11-21 05:25:00,48.9,44.9,29.95,SSE,148,0.0,4.0,86,0.00,,OVC050,0.00,0.00,VWS V14.01,2013-11-21 11:25:00,
2013-11-21 05:30:00,48.8,45.1,29.95,SE,128,0.0,4.0,87,0.00,,OVC050,0.00,0.00,VWS V14.01,2013-11-21 11:30:00,
2013-11-21 05:35:00,48.7,45.3,29.95,ESE,109,2.0,5.0,88,0.01,,OVC050,0.01,0.00,VWS V14.01,2013-11-21 11:35:00,
2013-11-21 05:40:00,48.6,45.2,29.95,SE,126,0.0,3.0,88,0.01,,OVC050,0.01,0.00,VWS V14.01,2013-11-21 11:40:00,
2013-11-21 05:45:00,48.4,45.3,29.96,ESE,121,0.0,3.0,89,0.01,,OVC050,0.01,0.00,VWS V14.01,2013-11-21 11:45:00,
2013-11-21 05:50:00,48.3,45.5,29.96,ESE,106,2.0,6.0,90,0.01,,OVC050,0.01,0.00,VWS V14.01,2013-11-21 11:50:00,
2013-11-21 05:55:00,48.1,45.3,29.96,South,173,0.0,3.0,90,0.01,,OVC050,0.01,0.00,VWS V14.01,2013-11-21 11:55:00,
2013-11-21 06:00:00,48.0,45.5,29.96,East,101,1.0,4.0,91,0.01,,OVC050,0.01,0.00,VWS V14.01,2013-11-21 12:00:00,
2013-11-21 06:05:00,47.8,45.3,29.96,SE,131,0.0,4.0,91,0.03,,OVC065,0.03,0.00,VWS V14.01,2013-11-21 12:05:00,
2013-11-21 06:10:00,47.8,45.6,29.96,ESE,121,0.0,2.0,92,0.04,,BKN120,0.04,0.00,VWS V14.01,2013-11-21 12:10:00,
2013-11-21 06:11:00,47.8,45.6,29.96,ESE,121,0.0,2.0,92,0.04,,OVC065,0.04,0.00,VWS V14.01,2013-11-21 12:11:00,
2013-11-21 06:15:00,47.7,45.8,29.95,SE,130,0.0,3.0,93,0.05,,BKN120,0.05,0.00,VWS V14.01,2013-11-21 12:15:00,
2013-11-21 06:16:00,47.7,45.8,29.95,SE,130,0.0,3.0,93,0.05,,OVC065,0.05,0.00,VWS V14.01,2013-11-21 12:16:00,
2013-11-21 06:20:00,47.6,45.7,29.95,ESE,119,2.0,5.0,93,0.07,,BKN120,0.07,0.00,VWS V14.01,2013-11-21 12:20:00,
2013-11-21 06:21:00,47.6,45.7,29.95,ESE,119,2.0,5.0,93,0.07,,OVC065,0.07,0.00,VWS V14.01,2013-11-21 12:21:00,
2013-11-21 06:25:00,47.5,45.9,29.95,SE,135,0.0,5.0,94,0.09,,BKN120,0.09,0.00,VWS V14.01,2013-11-21 12:25:00,
2013-11-21 06:26:00,47.5,45.9,29.95,SE,135,0.0,0.0,94,0.09,,OVC065,0.09,0.00,VWS V14.01,2013-11-21 12:26:00,
2013-11-21 06:30:00,47.5,45.9,29.95,SSE,157,1.0,4.0,94,0.10,,BKN120,0.10,0.00,VWS V14.01,2013-11-21 12:30:00,
2013-11-21 06:31:00,47.4,45.8,29.95,SE,131,2.0,2.0,94,0.10,,OVC065,0.10,0.00,VWS V14.01,2013-11-21 12:31:00,
2013-11-21 06:35:00,47.4,45.8,29.95,ESE,113,0.0,3.0,94,0.11,,BKN120,0.11,0.00,VWS V14.01,2013-11-21 12:35:00,
2013-11-21 06:36:00,47.4,45.8,29.95,ESE,113,0.0,0.0,94,0.11,,OVC065,0.12,0.00,VWS V14.01,2013-11-21 12:36:00,
2013-11-21 06:40:00,47.4,45.8,29.95,ESE,111,0.0,1.0,94,0.12,,BKN120,0.13,0.00,VWS V14.01,2013-11-21 12:40:00,
2013-11-21 06:41:00,47.4,45.8,29.95,ESE,111,0.0,0.0,94,0.12,,OVC065,0.13,0.00,VWS V14.01,2013-11-21 12:41:00,
2013-11-21 06:45:00,47.4,46.0,29.96,ESE,115,0.0,2.0,95,0.14,,BKN120,0.15,0.00,VWS V14.01,2013-11-21 12:45:00,
2013-11-21 06:46:00,47.4,46.0,29.96,ESE,115,0.0,0.0,95,0.14,,OVC065,0.15,0.00,VWS V14.01,2013-11-21 12:46:00,
2013-11-21 06:50:00,47.4,46.0,29.96,ESE,106,0.0,3.0,95,0.15,,BKN120,0.16,0.00,VWS V14.01,2013-11-21 12:50:00,
2013-11-21 06:51:00,47.3,45.9,29.96,ESE,106,0.0,0.0,95,0.15,,OVC065,0.16,0.00,VWS V14.01,2013-11-21 12:51:00,
2013-11-21 06:55:00,47.4,46.0,29.96,South,171,0.0,3.0,95,0.16,,BKN120,0.17,0.00,VWS V14.01,2013-11-21 12:55:00,
2013-11-21 06:56:00,47.4,46.0,29.96,South,171,0.0,1.0,95,0.16,,OVC065,0.17,0.00,VWS V14.01,2013-11-21 12:56:00,
2013-11-21 07:00:00,47.4,46.0,29.97,SSW,201,0.0,1.0,95,0.18,,BKN120,0.19,0.00,VWS V14.01,2013-11-21 13:00:00,
2013-11-21 07:01:00,47.4,46.0,29.97,SSW,201,0.0,0.0,95,0.18,,OVC016,0.19,0.00,VWS V14.01,2013-11-21 13:01:00,
2013-11-21 07:05:00,47.4,46.0,29.97,SSW,201,0.0,1.0,95,0.20,,BKN120,0.21,0.00,VWS V14.01,2013-11-21 13:05:00,
2013-11-21 07:06:00,47.4,46.0,29.97,SSW,201,0.0,0.0,95,0.18,,OVC016,0.21,0.00,VWS V14.01,2013-11-21 13:06:00,
2013-11-21 07:10:00,47.3,45.9,29.97,South,188,1.0,2.0,95,0.19,,BKN120,0.22,0.00,VWS V14.01,2013-11-21 13:10:00,
2013-11-21 07:11:00,47.4,46.0,29.97,South,188,0.0,1.0,95,0.19,,OVC016,0.23,0.00,VWS V14.01,2013-11-21 13:11:00,
2013-11-21 07:15:00,47.4,46.0,29.97,South,188,0.0,1.0,95,0.21,,BKN120,0.25,0.00,VWS V14.01,2013-11-21 13:15:00,
2013-11-21 07:16:00,47.4,46.0,29.97,South,188,0.0,0.0,95,0.20,,OVC016,0.25,0.00,VWS V14.01,2013-11-21 13:16:00,
2013-11-21 07:20:00,47.4,46.0,29.97,South,188,0.0,0.0,95,0.22,,BKN120,0.27,0.00,VWS V14.01,2013-11-21 13:20:00,
2013-11-21 07:21:00,47.4,46.0,29.97,South,188,0.0,0.0,95,0.20,,OVC016,0.27,0.00,VWS V14.01,2013-11-21 13:21:00,
2013-11-21 07:25:00,47.4,46.3,29.97,South,188,0.0,1.0,96,0.21,,BKN120,0.28,0.00,VWS V14.01,2013-11-21 13:25:00,
2013-11-21 07:26:00,47.4,46.3,29.97,South,188,0.0,0.0,96,0.19,,OVC016,0.28,0.00,VWS V14.01,2013-11-21 13:26:00,
2013-11-21 07:30:00,47.4,46.3,29.97,South,188,0.0,1.0,96,0.20,,BKN120,0.29,0.00,VWS V14.01,2013-11-21 13:30:00,
2013-11-21 07:31:00,47.4,46.3,29.97,South,188,0.0,0.0,96,0.19,,OVC016,0.29,0.00,VWS V14.01,2013-11-21 13:31:00,
2013-11-21 07:35:00,47.4,46.3,29.97,SSE,147,0.0,2.0,96,0.20,,BKN120,0.30,0.00,VWS V14.01,2013-11-21 13:35:00,
2013-11-21 07:36:00,47.4,46.3,29.97,SSE,147,0.0,0.0,96,0.19,,OVC016,0.30,0.00,VWS V14.01,2013-11-21 13:36:00,
2013-11-21 07:40:00,47.4,46.3,29.97,SE,134,0.0,3.0,96,0.20,,BKN120,0.31,0.00,VWS V14.01,2013-11-21 13:40:00,
2013-11-21 07:41:00,47.4,46.3,29.97,SE,134,0.0,0.0,96,0.18,,OVC016,0.31,0.00,VWS V14.01,2013-11-21 13:41:00,
2013-11-21 07:45:00,47.4,46.3,29.97,ESE,110,1.0,2.0,96,0.19,,BKN120,0.32,0.00,VWS V14.01,2013-11-21 13:45:00,
2013-11-21 07:46:00,47.5,46.4,29.97,East,98,0.0,1.0,96,0.18,,OVC021,0.33,0.00,VWS V14.01,2013-11-21 13:46:00,
2013-11-21 07:50:00,47.5,46.4,29.97,SE,129,0.0,2.0,96,0.19,,BKN120,0.34,0.00,VWS V14.01,2013-11-21 13:50:00,
2013-11-21 07:51:00,47.5,46.4,29.97,SE,129,0.0,0.0,96,0.18,,OVC021,0.34,0.00,VWS V14.01,2013-11-21 13:51:00,
2013-11-21 07:55:00,47.5,46.4,29.97,ESE,121,0.0,1.0,96,0.19,,BKN120,0.35,0.00,VWS V14.01,2013-11-21 13:55:00,
2013-11-21 07:56:00,47.5,46.4,29.97,ESE,121,2.0,2.0,96,0.18,,OVC021,0.35,0.00,VWS V14.01,2013-11-21 13:56:00,
2013-11-21 08:00:00,47.5,46.4,29.97,ESE,121,0.0,2.0,96,0.19,,BKN120,0.36,0.00,VWS V14.01,2013-11-21 14:00:00,
2013-11-21 08:01:00,47.5,46.4,29.97,ESE,121,0.0,0.0,96,0.17,,RA,0.36,0.00,VWS V14.01,2013-11-21 14:01:00,
2013-11-21 08:05:00,47.5,46.4,29.97,SE,140,1.0,4.0,96,0.18,,BKN120,0.37,7.00,VWS V14.01,2013-11-21 14:05:00,
2013-11-21 08:06:00,47.5,46.4,29.97,SE,140,0.0,1.0,96,0.16,,RA,0.37,9.00,VWS V14.01,2013-11-21 14:06:00,
2013-11-21 08:10:00,47.5,46.4,29.97,SE,141,3.0,3.0,96,0.17,,BKN120,0.38,9.00,VWS V14.01,2013-11-21 14:10:00,
2013-11-21 08:11:00,47.6,46.5,29.97,ESE,117,0.0,3.0,96,0.16,,RA,0.38,9.00,VWS V14.01,2013-11-21 14:11:00,
2013-11-21 08:15:00,47.6,46.5,29.97,ESE,117,0.0,3.0,96,0.16,,BKN120,0.38,7.00,VWS V14.01,2013-11-21 14:15:00,
2013-11-21 08:16:00,47.6,46.5,29.97,ESE,117,0.0,0.0,96,0.13,,RA,0.38,7.00,VWS V14.01,2013-11-21 14:16:00,
2013-11-21 08:20:00,47.6,46.5,29.97,ESE,117,0.0,1.0,96,0.14,,BKN120,0.39,9.00,VWS V14.01,2013-11-21 14:20:00,
2013-11-21 08:21:00,47.6,46.5,29.97,ESE,117,0.0,0.0,96,0.12,,RA,0.39,9.00,VWS V14.01,2013-11-21 14:21:00,
2013-11-21 08:25:00,47.6,46.8,29.97,SE,131,4.0,5.0,97,0.15,,BKN120,0.42,11.00,VWS V14.01,2013-11-21 14:25:00,
2013-11-21 08:26:00,47.7,46.9,29.97,SE,125,0.0,4.0,97,0.15,,RA,0.43,14.00,VWS V14.01,2013-11-21 14:26:00,
2013-11-21 08:30:00,47.7,46.9,29.98,SE,126,0.0,4.0,97,0.17,,BKN120,0.45,7.00,VWS V14.01,2013-11-21 14:30:00,
2013-11-21 08:31:00,47.7,46.9,29.98,SE,126,0.0,0.0,97,0.17,, +RA,0.46,12.00,VWS V14.01,2013-11-21 14:31:00,
2013-11-21 08:35:00,47.7,46.9,29.98,SE,130,0.0,4.0,97,0.20,,BKN120,0.49,14.00,VWS V14.01,2013-11-21 14:35:00,
2013-11-21 08:36:00,47.8,47.0,29.98,SSE,150,0.0,3.0,97,0.19,, +RA,0.49,14.00,VWS V14.01,2013-11-21 14:36:00,
2013-11-21 08:40:00,47.8,47.0,29.98,ESE,103,2.0,5.0,97,0.19,,BKN120,0.49,14.00,VWS V14.01,2013-11-21 14:40:00,
2013-11-21 08:41:00,47.8,47.0,29.98,SSE,153,0.0,3.0,97,0.18,, +RA,0.49,12.00,VWS V14.01,2013-11-21 14:41:00,
2013-11-21 08:45:00,47.9,47.1,29.98,SSW,199,0.0,3.0,97,0.18,,BKN120,0.49,0.00,VWS V14.01,2013-11-21 14:45:00,
2013-11-21 08:47:00,47.9,47.1,29.98,SSW,199,0.0,0.0,97,0.17,,RA,0.49,0.00,VWS V14.01,2013-11-21 14:47:00,
2013-11-21 08:50:00,47.9,47.1,29.98,SSW,205,0.0,0.0,97,0.18,,BKN120,0.50,0.00,VWS V14.01,2013-11-21 14:50:00,
2013-11-21 08:52:00,47.9,47.1,29.98,SSW,205,0.0,0.0,97,0.16,,RA,0.50,0.00,VWS V14.01,2013-11-21 14:52:00,
2013-11-21 08:55:00,47.9,47.1,29.98,SSW,205,0.0,0.0,97,0.16,,BKN120,0.50,0.00,VWS V14.01,2013-11-21 14:55:00,
2013-11-21 08:57:00,47.9,47.1,29.98,SSW,205,0.0,0.0,97,0.15,,RA,0.50,0.00,VWS V14.01,2013-11-21 14:57:00,
2013-11-21 09:00:00,48.0,47.2,29.99,SSW,205,0.0,0.0,97,0.15,,BKN120,0.50,5.00,VWS V14.01,2013-11-21 15:00:00,
2013-11-21 09:02:00,48.0,47.2,29.99,SSW,205,0.0,0.0,97,0.14,,RA,0.50,9.00,VWS V14.01,2013-11-21 15:02:00,
2013-11-21 09:05:00,48.0,47.2,29.99,SSW,205,0.0,0.0,97,0.14,,BKN120,0.50,14.00,VWS V14.01,2013-11-21 15:05:00,
2013-11-21 09:07:00,48.0,47.2,29.99,SSW,205,0.0,0.0,97,0.13,,RA,0.50,12.00,VWS V14.01,2013-11-21 15:07:00,
2013-11-21 09:10:00,48.1,47.3,29.99,ESE,116,0.0,3.0,97,0.13,,BKN120,0.50,18.00,VWS V14.01,2013-11-21 15:10:00,
2013-11-21 09:12:00,48.1,47.3,29.99,ESE,116,0.0,1.0,97,0.12,,RA,0.50,19.00,VWS V14.01,2013-11-21 15:12:00,
2013-11-21 09:15:00,48.2,47.4,29.98,ESE,116,0.0,1.0,97,0.12,,BKN120,0.50,44.00,VWS V14.01,2013-11-21 15:15:00,
2013-11-21 09:17:00,48.2,47.4,29.98,ESE,117,0.0,0.0,97,0.12,, +RA,0.50,35.00,VWS V14.01,2013-11-21 15:17:00,
2013-11-21 09:20:00,48.3,47.5,29.98,East,92,0.0,3.0,97,0.12,,BKN120,0.50,40.00,VWS V14.01,2013-11-21 15:20:00,
2013-11-21 09:22:00,48.3,47.5,29.98,East,92,0.0,0.0,97,0.11,, +RA,0.50,39.00,VWS V14.01,2013-11-21 15:22:00,
2013-11-21 09:25:00,48.4,47.6,29.98,East,92,0.0,0.0,97,0.11,,BKN120,0.50,40.00,VWS V14.01,2013-11-21 15:25:00,
2013-11-21 09:27:00,48.5,47.7,29.98,East,92,0.0,0.0,97,0.08,, +RA,0.50,47.00,VWS V14.01,2013-11-21 15:27:00,
2013-11-21 09:30:00,48.5,47.7,29.99,ESE,122,0.0,3.0,97,0.08,,BKN120,0.50,47.00,VWS V14.01,2013-11-21 15:30:00,
2013-11-21 09:32:00,48.6,47.8,29.99,ESE,122,0.0,0.0,97,0.05,, +RA,0.50,58.00,VWS V14.01,2013-11-21 15:32:00,
2013-11-21 09:35:00,48.7,47.9,29.99,ESE,123,1.0,2.0,97,0.05,,BKN120,0.50,79.00,VWS V14.01,2013-11-21 15:35:00,
2013-11-21 09:37:00,48.8,48.0,29.99,SE,130,0.0,1.0,97,0.01,, +RA,0.50,83.00,VWS V14.01,2013-11-21 15:37:00,
2013-11-21 09:40:00,49.0,48.2,29.99,SE,130,0.0,1.0,97,0.01,,BKN120,0.50,84.00,VWS V14.01,2013-11-21 15:40:00,
2013-11-21 09:42:00,49.1,48.3,29.99,SE,130,0.0,0.0,97,0.01,, +RA,0.50,74.00,VWS V14.01,2013-11-21 15:42:00,
2013-11-21 09:45:00,49.1,48.3,30.02,South,187,0.0,2.0,97,0.01,,BKN120,0.50,44.00,VWS V14.01,2013-11-21 15:45:00,
2013-11-21 09:47:00,49.1,48.3,30.02,SW,223,0.0,2.0,97,0.01,, +RA,0.50,42.00,VWS V14.01,2013-11-21 15:47:00,
2013-11-21 09:50:00,49.2,48.4,30.02,SW,223,0.0,2.0,97,0.01,,BKN120,0.50,25.00,VWS V14.01,2013-11-21 15:50:00,
2013-11-21 09:52:00,49.2,48.4,30.02,SW,223,0.0,0.0,97,0.00,, +RA,0.50,23.00,VWS V14.01,2013-11-21 15:52:00,
2013-11-21 09:55:00,49.2,48.4,30.02,SSW,200,1.0,2.0,97,0.01,,BKN120,0.51,30.00,VWS V14.01,2013-11-21 15:55:00,
2013-11-21 09:57:00,49.2,48.4,30.02,SSW,200,0.0,2.0,97,0.02,, +RA,0.52,26.00,VWS V14.01,2013-11-21 15:57:00,
2013-11-21 10:00:00,49.2,48.4,30.04,WSW,249,0.0,2.0,97,0.02,,BKN120,0.52,18.00,VWS V14.01,2013-11-21 16:00:00,
2013-11-21 10:02:00,49.3,48.5,30.04,SSW,192,3.0,3.0,97,0.02,, +RA,0.52,18.00,VWS V14.01,2013-11-21 16:02:00,
2013-11-21 10:05:00,49.3,48.5,30.04,East,98,2.0,4.0,97,0.02,,BKN120,0.52,14.00,VWS V14.01,2013-11-21 16:05:00,
2013-11-21 10:07:00,49.3,48.5,30.04,SE,144,0.0,2.0,97,0.02,, +RA,0.52,12.00,VWS V14.01,2013-11-21 16:07:00,
2013-11-21 10:10:00,49.3,48.5,30.04,SE,127,0.0,3.0,97,0.03,,BKN120,0.53,11.00,VWS V14.01,2013-11-21 16:10:00,
2013-11-21 10:12:00,49.2,48.4,30.04,ESE,116,1.0,2.0,97,0.03,, +RA,0.53,9.00,VWS V14.01,2013-11-21 16:12:00,
2013-11-21 10:15:00,49.2,48.4,30.01,East,96,0.0,2.0,97,0.04,,BKN120,0.54,9.00,VWS V14.01,2013-11-21 16:15:00,
2013-11-21 10:17:00,49.2,48.4,30.01,East,96,0.0,1.0,97,0.05,, +RA,0.55,9.00,VWS V14.01,2013-11-21 16:17:00,
2013-11-21 10:20:00,49.1,48.3,30.01,ESE,119,0.0,2.0,97,0.05,,BKN120,0.55,9.00,VWS V14.01,2013-11-21 16:20:00,
2013-11-21 10:22:00,49.1,48.3,30.01,ESE,119,0.0,0.0,97,0.05,, +RA,0.55,9.00,VWS V14.01,2013-11-21 16:22:00,
2013-11-21 10:25:00,49.1,48.3,30.01,ESE,112,1.0,5.0,97,0.07,,BKN120,0.57,18.00,VWS V14.01,2013-11-21 16:25:00,
2013-11-21 10:27:00,49.0,48.2,30.01,ESE,117,0.0,3.0,97,0.07,, +RA,0.57,25.00,VWS V14.01,2013-11-21 16:27:00,
2013-11-21 10:30:00,48.9,48.1,30.01,SE,128,0.0,4.0,97,0.09,,BKN120,0.59,19.00,VWS V14.01,2013-11-21 16:30:00,
2013-11-21 10:32:00,48.9,48.1,30.01,ESE,113,3.0,3.0,97,0.09,,RA,0.59,18.00,VWS V14.01,2013-11-21 16:32:00,
2013-11-21 10:35:00,48.8,48.0,30.01,ESE,121,1.0,3.0,97,0.10,,BKN120,0.60,35.00,VWS V14.01,2013-11-21 16:35:00,
2013-11-21 10:37:00,48.8,48.0,30.01,ESE,121,0.0,2.0,97,0.10,,RA,0.60,32.00,VWS V14.01,2013-11-21 16:37:00,
2013-11-21 10:40:00,48.8,48.0,30.01,East,100,0.0,3.0,97,0.11,,BKN120,0.61,30.00,VWS V14.01,2013-11-21 16:40:00,
2013-11-21 10:42:00,48.8,48.0,30.01,East,100,0.0,1.0,97,0.11,,RA,0.61,16.00,VWS V14.01,2013-11-21 16:42:00,
2013-11-21 10:45:00,48.8,48.0,30.01,SE,144,0.0,2.0,97,0.12,,BKN120,0.62,21.00,VWS V14.01,2013-11-21 16:45:00,
2013-11-21 10:47:00,48.8,48.0,30.01,SE,144,0.0,0.0,97,0.12,,-RA,0.62,21.00,VWS V14.01,2013-11-21 16:47:00,
2013-11-21 10:50:00,48.7,47.9,30.01,SE,144,0.0,1.0,97,0.13,,BKN120,0.63,37.00,VWS V14.01,2013-11-21 16:50:00,
2013-11-21 10:52:00,48.7,47.9,30.01,SE,124,0.0,2.0,97,0.14,,-RA,0.64,25.00,VWS V14.01,2013-11-21 16:52:00,
2013-11-21 10:55:00,48.7,47.9,30.01,East,101,1.0,2.0,97,0.14,,BKN120,0.64,14.00,VWS V14.01,2013-11-21 16:55:00,
2013-11-21 10:57:00,48.7,47.9,30.01,SE,142,3.0,3.0,97,0.13,,-RA,0.64,23.00,VWS V14.01,2013-11-21 16:57:00,
2013-11-21 11:00:00,48.7,47.9,30.00,SE,131,0.0,3.0,97,0.14,,BKN120,0.65,40.00,VWS V14.01,2013-11-21 17:00:00,
2013-11-21 11:02:00,48.7,47.9,30.00,SSE,168,0.0,2.0,97,0.14,,-RA,0.66,40.00,VWS V14.01,2013-11-21 17:02:00,
2013-11-21 11:05:00,48.7,47.9,30.00,SSE,159,0.0,2.0,97,0.15,,BKN120,0.67,44.00,VWS V14.01,2013-11-21 17:05:00,
2013-11-21 11:08:00,48.7,47.9,30.00,ESE,123,0.0,2.0,97,0.15,,-RA,0.67,46.00,VWS V14.01,2013-11-21 17:08:00,
2013-11-21 11:10:00,48.8,48.0,30.00,ESE,103,2.0,3.0,97,0.15,,BKN120,0.67,46.00,VWS V14.01,2013-11-21 17:10:00,
2013-11-21 11:13:00,48.8,48.0,30.00,ESE,103,0.0,2.0,97,0.14,,-RA,0.67,46.00,VWS V14.01,2013-11-21 17:13:00,
2013-11-21 11:15:00,48.8,48.0,30.00,East,96,0.0,3.0,97,0.14,,BKN120,0.67,51.00,VWS V14.01,2013-11-21 17:15:00,
2013-11-21 11:18:00,48.9,48.1,30.00,SE,126,0.0,3.0,97,0.13,,-RA,0.67,35.00,VWS V14.01,2013-11-21 17:18:00,
2013-11-21 11:20:00,48.9,48.1,30.00,SE,126,0.0,3.0,97,0.14,,BKN120,0.68,60.00,VWS V14.01,2013-11-21 17:20:00,
2013-11-21 11:23:00,48.9,48.1,30.00,ESE,121,1.0,2.0,97,0.14,,-RA,0.69,60.00,VWS V14.01,2013-11-21 17:23:00,
2013-11-21 11:25:00,49.0,48.2,30.00,ESE,121,0.0,2.0,97,0.14,,BKN120,0.69,93.00,VWS V14.01,2013-11-21 17:25:00,
2013-11-21 11:28:00,49.0,48.2,30.00,South,172,2.0,2.0,97,0.13,,-RA,0.70,91.00,VWS V14.01,2013-11-21 17:28:00,
2013-11-21 11:30:00,49.1,48.3,29.98,SSW,205,2.0,2.0,97,0.13,,BKN120,0.70,76.00,VWS V14.01,2013-11-21 17:30:00,
2013-11-21 11:33:00,49.2,48.4,29.98,ESE,103,1.0,2.0,97,0.11,,-RA,0.70,67.00,VWS V14.01,2013-11-21 17:33:00,
2013-11-21 11:35:00,49.2,48.4,29.98,ESE,117,0.0,2.0,97,0.12,,BKN120,0.71,100.00,VWS V14.01,2013-11-21 17:35:00,
2013-11-21 11:38:00,49.3,48.5,29.98,ESE,117,0.0,1.0,97,0.11,,-RA,0.71,83.00,VWS V14.01,2013-11-21 17:38:00,
2013-11-21 11:40:00,49.4,48.6,29.98,SE,133,1.0,3.0,97,0.11,,BKN120,0.71,91.00,VWS V14.01,2013-11-21 17:40:00,
2013-11-21 11:43:00,49.4,48.6,29.98,SSE,148,0.0,4.0,97,0.10,,-RA,0.71,86.00,VWS V14.01,2013-11-21 17:43:00,
2013-11-21 11:45:00,49.4,48.6,29.98,SE,140,1.0,4.0,97,0.10,,BKN120,0.71,127.00,VWS V14.01,2013-11-21 17:45:00,
2013-11-21 11:48:00,49.6,48.8,29.98,SW,219,2.0,3.0,97,0.09,,-RA,0.71,128.00,VWS V14.01,2013-11-21 17:48:00,
2013-11-21 11:50:00,49.7,48.9,29.98,SSE,162,0.0,3.0,97,0.09,,BKN120,0.71,158.00,VWS V14.01,2013-11-21 17:50:00,
2013-11-21 11:53:00,49.9,49.1,29.98,SE,136,0.0,1.0,97,0.08,,-RA,0.71,144.00,VWS V14.01,2013-11-21 17:53:00,
2013-11-21 11:55:00,49.9,49.1,29.98,ESE,121,0.0,2.0,97,0.08,,BKN120,0.71,116.00,VWS V14.01,2013-11-21 17:55:00,
2013-11-21 11:58:00,50.0,49.2,29.98,SE,128,0.0,4.0,97,0.07,,-RA,0.71,79.00,VWS V14.01,2013-11-21 17:58:00,
2013-11-21 12:00:00,50.0,49.2,29.97,SSE,150,2.0,5.0,97,0.07,,BKN120,0.71,77.00,VWS V14.01,2013-11-21 18:00:00,
2013-11-21 12:03:00,50.1,49.3,29.97,SSW,198,0.0,4.0,97,0.06,,OVC070,0.71,67.00,VWS V14.01,2013-11-21 18:03:00,
2013-11-21 12:05:00,50.1,49.3,29.97,SE,137,0.0,4.0,97,0.06,,BKN120,0.71,56.00,VWS V14.01,2013-11-21 18:05:00,
2013-11-21 12:08:00,50.1,49.3,29.97,SE,132,2.0,2.0,97,0.04,,OVC070,0.71,69.00,VWS V14.01,2013-11-21 18:08:00,
2013-11-21 12:10:00,50.0,49.2,29.97,SE,132,5.0,5.0,97,0.04,,BKN120,0.71,70.00,VWS V14.01,2013-11-21 18:10:00,
2013-11-21 12:13:00,50.0,49.2,29.97,ESE,103,1.0,5.0,97,0.04,,OVC070,0.71,47.00,VWS V14.01,2013-11-21 18:13:00,
2013-11-21 12:15:00,49.9,49.1,29.97,ESE,120,1.0,5.0,97,0.04,,BKN120,0.71,51.00,VWS V14.01,2013-11-21 18:15:00,
2013-11-21 12:18:00,49.9,49.1,29.97,ESE,107,0.0,3.0,97,0.04,,OVC070,0.71,60.00,VWS V14.01,2013-11-21 18:18:00,
2013-11-21 12:20:00,49.9,49.1,29.97,SSE,148,3.0,4.0,97,0.04,,BKN120,0.71,65.00,VWS V14.01,2013-11-21 18:20:00,
2013-11-21 12:23:00,49.9,48.8,29.97,SSE,151,0.0,4.0,96,0.03,,OVC070,0.71,76.00,VWS V14.01,2013-11-21 18:23:00,
2013-11-21 12:25:00,49.8,48.7,29.97,SSE,156,1.0,4.0,96,0.03,,BKN120,0.71,90.00,VWS V14.01,2013-11-21 18:25:00,
2013-11-21 12:28:00,49.8,48.7,29.97,ESE,123,3.0,5.0,96,0.02,,OVC070,0.71,70.00,VWS V14.01,2013-11-21 18:28:00,
2013-11-21 12:30:00,49.8,48.7,29.97,SE,125,0.0,5.0,96,0.02,,BKN120,0.71,67.00,VWS V14.01,2013-11-21 18:30:00,
2013-11-21 12:33:00,49.8,48.7,29.97,ESE,115,0.0,2.0,96,0.01,,OVC070,0.71,72.00,VWS V14.01,2013-11-21 18:33:00,
2013-11-21 12:35:00,49.8,48.7,29.97,ESE,115,0.0,2.0,96,0.01,,BKN120,0.71,65.00,VWS V14.01,2013-11-21 18:35:00,
2013-11-21 12:38:00,49.8,48.7,29.97,SE,128,0.0,5.0,96,0.00,,OVC070,0.71,51.00,VWS V14.01,2013-11-21 18:38:00,
2013-11-21 12:40:00,49.8,48.7,29.97,SSW,211,0.0,5.0,96,0.00,,BKN120,0.71,35.00,VWS V14.01,2013-11-21 18:40:00,
2013-11-21 12:43:00,49.8,48.7,29.97,SSW,211,0.0,0.0,96,0.00,,OVC070,0.71,47.00,VWS V14.01,2013-11-21 18:43:00,
2013-11-21 12:45:00,49.8,48.7,29.97,SSE,147,2.0,4.0,96,0.00,,BKN120,0.71,72.00,VWS V14.01,2013-11-21 18:45:00,
2013-11-21 12:48:00,49.8,48.7,29.97,SSE,161,0.0,2.0,96,0.00,,OVC070,0.71,56.00,VWS V14.01,2013-11-21 18:48:00,
2013-11-21 12:50:00,49.8,48.7,29.97,SSE,161,0.0,2.0,96,0.00,,BKN120,0.71,46.00,VWS V14.01,2013-11-21 18:50:00,
2013-11-21 12:53:00,49.9,49.1,29.97,SSE,161,0.0,2.0,97,0.00,,OVC070,0.71,47.00,VWS V14.01,2013-11-21 18:53:00,
2013-11-21 12:55:00,49.9,49.1,29.97,SSE,156,1.0,5.0,97,0.00,,BKN120,0.71,42.00,VWS V14.01,2013-11-21 18:55:00,
2013-11-21 12:58:00,49.9,48.8,29.97,SE,132,0.0,6.0,96,0.00,,OVC070,0.71,46.00,VWS V14.01,2013-11-21 18:58:00,
2013-11-21 13:00:00,49.9,48.8,29.97,SSE,167,0.0,6.0,96,0.00,,BKN120,0.71,49.00,VWS V14.01,2013-11-21 19:00:00,
2013-11-21 13:03:00,49.9,48.8,29.97,SSE,167,0.0,0.0,96,0.00,,OVC065,0.71,44.00,VWS V14.01,2013-11-21 19:03:00,
2013-11-21 13:05:00,49.9,48.8,29.97,South,181,2.0,3.0,96,0.00,,BKN120,0.71,44.00,VWS V14.01,2013-11-21 19:05:00,
2013-11-21 13:09:00,49.9,48.8,29.97,SSE,153,0.0,2.0,96,0.00,,OVC065,0.71,42.00,VWS V14.01,2013-11-21 19:09:00,
2013-11-21 13:10:00,49.8,48.7,29.97,SSE,157,1.0,2.0,96,0.00,,BKN120,0.71,37.00,VWS V14.01,2013-11-21 19:10:00,
2013-11-21 13:14:00,49.8,48.7,29.97,SSW,202,1.0,2.0,96,0.00,,OVC065,0.71,44.00,VWS V14.01,2013-11-21 19:14:00,
2013-11-21 13:15:00,49.8,48.7,29.98,South,176,0.0,2.0,96,0.00,,BKN120,0.71,49.00,VWS V14.01,2013-11-21 19:15:00,
2013-11-21 13:19:00,49.9,48.8,29.98,South,176,0.0,1.0,96,0.00,,OVC021,0.71,51.00,VWS V14.01,2013-11-21 19:19:00,
2013-11-21 13:20:00,49.9,48.8,29.98,ENE,77,0.0,3.0,96,0.00,,BKN120,0.71,49.00,VWS V14.01,2013-11-21 19:20:00,
2013-11-21 13:24:00,49.9,48.8,29.98,East,95,2.0,2.0,96,0.00,,OVC021,0.71,47.00,VWS V14.01,2013-11-21 19:24:00,
2013-11-21 13:25:00,49.9,48.8,29.98,SE,130,0.0,3.0,96,0.00,,BKN120,0.71,60.00,VWS V14.01,2013-11-21 19:25:00,
2013-11-21 13:29:00,49.9,49.1,29.98,SE,130,0.0,1.0,97,0.00,,OVC021,0.71,76.00,VWS V14.01,2013-11-21 19:29:00,
2013-11-21 13:30:00,49.9,49.1,29.97,SE,130,0.0,1.0,97,0.00,,BKN120,0.71,86.00,VWS V14.01,2013-11-21 19:30:00,
2013-11-21 13:34:00,50.0,49.2,29.97,SE,139,0.0,5.0,97,0.00,,OVC021,0.71,56.00,VWS V14.01,2013-11-21 19:34:00,
2013-11-21 13:35:00,50.0,49.2,29.97,South,170,0.0,5.0,97,0.00,,BKN120,0.71,53.00,VWS V14.01,2013-11-21 19:35:00,
2013-11-21 13:39:00,50.0,49.2,29.97,ESE,104,1.0,2.0,97,0.00,,OVC021,0.71,42.00,VWS V14.01,2013-11-21 19:39:00,
2013-11-21 13:40:00,50.0,49.2,29.97,ESE,104,0.0,2.0,97,0.00,,BKN120,0.71,37.00,VWS V14.01,2013-11-21 19:40:00,
2013-11-21 13:44:00,50.0,49.2,29.97,ESE,116,0.0,2.0,97,0.00,,OVC021,0.71,51.00,VWS V14.01,2013-11-21 19:44:00,
2013-11-21 13:45:00,50.0,49.2,29.97,ESE,116,0.0,2.0,97,0.00,,BKN120,0.71,51.00,VWS V14.01,2013-11-21 19:45:00,
2013-11-21 13:49:00,50.1,49.3,29.97,SW,236,0.0,1.0,97,0.00,,OVC021,0.71,44.00,VWS V14.01,2013-11-21 19:49:00,
2013-11-21 13:50:00,50.1,49.3,29.97,South,191,2.0,2.0,97,0.00,,BKN120,0.71,53.00,VWS V14.01,2013-11-21 19:50:00,
2013-11-21 13:54:00,50.1,49.3,29.97,South,173,0.0,3.0,97,0.00,,OVC021,0.71,49.00,VWS V14.01,2013-11-21 19:54:00,
2013-11-21 13:55:00,50.1,49.3,29.97,SE,130,0.0,3.0,97,0.00,,BKN120,0.71,47.00,VWS V14.01,2013-11-21 19:55:00,
2013-11-21 13:59:00,50.0,48.9,29.97,ESE,105,0.0,4.0,96,0.00,,OVC021,0.71,42.00,VWS V14.01,2013-11-21 19:59:00,
2013-11-21 14:00:00,50.0,48.9,29.96,ESE,111,0.0,4.0,96,0.00,,BKN120,0.71,44.00,VWS V14.01,2013-11-21 20:00:00,
2013-11-21 14:04:00,50.0,48.9,29.96,ESE,111,0.0,1.0,96,0.00,,OVC018,0.71,53.00,VWS V14.01,2013-11-21 20:04:00,
2013-11-21 14:05:00,49.9,49.1,29.96,ESE,111,0.0,1.0,97,0.00,,BKN120,0.71,53.00,VWS V14.01,2013-11-21 20:05:00,
2013-11-21 14:09:00,50.0,49.2,29.96,ESE,111,0.0,0.0,97,0.01,,OVC018,0.72,53.00,VWS V14.01,2013-11-21 20:09:00,
2013-11-21 14:10:00,50.0,49.2,29.96,ESE,111,2.0,2.0,97,0.01,,BKN120,0.72,56.00,VWS V14.01,2013-11-21 20:10:00,
2013-11-21 14:14:00,50.0,49.2,29.96,ESE,111,0.0,2.0,97,0.01,,OVC018,0.72,58.00,VWS V14.01,2013-11-21 20:14:00,
2013-11-21 14:15:00,50.0,49.2,29.96,ESE,111,0.0,2.0,97,0.01,,BKN120,0.72,56.00,VWS V14.01,2013-11-21 20:15:00,
2013-11-21 14:19:00,50.0,49.2,29.96,ESE,111,0.0,1.0,97,0.01,,OVC018,0.72,47.00,VWS V14.01,2013-11-21 20:19:00,
2013-11-21 14:20:00,50.0,49.2,29.96,ESE,111,0.0,2.0,97,0.01,,BKN120,0.72,47.00,VWS V14.01,2013-11-21 20:20:00,
2013-11-21 14:24:00,50.0,49.2,29.96,SE,126,0.0,4.0,97,0.01,,OVC018,0.72,47.00,VWS V14.01,2013-11-21 20:24:00,
2013-11-21 14:25:00,50.0,49.2,29.96,SE,126,0.0,4.0,97,0.01,,BKN120,0.72,60.00,VWS V14.01,2013-11-21 20:25:00,
2013-11-21 14:29:00,50.0,48.9,29.96,SE,136,1.0,3.0,96,0.01,,OVC018,0.72,65.00,VWS V14.01,2013-11-21 20:29:00,
2013-11-21 14:30:00,50.0,49.2,29.96,SE,136,0.0,3.0,97,0.01,,BKN120,0.72,83.00,VWS V14.01,2013-11-21 20:30:00,
2013-11-21 14:34:00,50.1,49.3,29.96,SE,129,0.0,2.0,97,0.01,,OVC018,0.72,107.00,VWS V14.01,2013-11-21 20:34:00,
2013-11-21 14:35:00,50.2,49.4,29.96,SE,129,0.0,2.0,97,0.01,,BKN120,0.72,105.00,VWS V14.01,2013-11-21 20:35:00,
2013-11-21 14:39:00,50.5,49.7,29.96,SE,143,0.0,4.0,97,0.01,,OVC018,0.72,109.00,VWS V14.01,2013-11-21 20:39:00,
2013-11-21 14:40:00,50.5,49.7,29.96,ESE,123,2.0,4.0,97,0.01,,BKN120,0.72,128.00,VWS V14.01,2013-11-21 20:40:00,
2013-11-21 14:44:00,50.5,49.4,29.96,East,88,1.0,3.0,96,0.01,,OVC018,0.72,97.00,VWS V14.01,2013-11-21 20:44:00,
2013-11-21 14:45:00,50.5,49.4,29.96,SE,146,2.0,3.0,96,0.01,,BKN120,0.72,97.00,VWS V14.01,2013-11-21 20:45:00,
2013-11-21 14:49:00,50.6,49.5,29.96,ESE,121,0.0,3.0,96,0.01,,OVC018,0.72,102.00,VWS V14.01,2013-11-21 20:49:00,
2013-11-21 14:50:00,50.7,49.9,29.96,South,184,0.0,3.0,97,0.01,,BKN120,0.72,100.00,VWS V14.01,2013-11-21 20:50:00,
2013-11-21 14:54:00,50.8,50.0,29.96,South,170,0.0,3.0,97,0.01,,OVC018,0.72,70.00,VWS V14.01,2013-11-21 20:54:00,
2013-11-21 14:55:00,50.8,49.7,29.96,SE,142,3.0,3.0,96,0.01,,BKN120,0.72,77.00,VWS V14.01,2013-11-21 20:55:00,
2013-11-21 14:59:00,50.8,49.7,29.96,SSE,158,1.0,4.0,96,0.01,,OVC018,0.72,83.00,VWS V14.01,2013-11-21 20:59:00,
2013-11-21 15:00:00,50.8,49.7,29.97,SE,137,0.0,4.0,96,0.01,,BKN120,0.72,53.00,VWS V14.01,2013-11-21 21:00:00,
2013-11-21 15:04:00,50.6,49.5,29.97,SE,138,0.0,3.0,96,0.01,,OVC027,0.72,33.00,VWS V14.01,2013-11-21 21:04:00,
2013-11-21 15:05:00,50.6,49.5,29.97,SE,139,0.0,3.0,96,0.01,,BKN120,0.72,32.00,VWS V14.01,2013-11-21 21:05:00,
2013-11-21 15:09:00,50.6,49.5,29.97,SE,139,0.0,0.0,96,0.01,,OVC027,0.72,37.00,VWS V14.01,2013-11-21 21:09:00,
2013-11-21 15:10:00,50.6,49.5,29.97,South,182,1.0,2.0,96,0.01,,BKN120,0.72,37.00,VWS V14.01,2013-11-21 21:10:00,
2013-11-21 15:14:00,50.6,49.5,29.97,South,182,0.0,1.0,96,0.00,,OVC027,0.72,40.00,VWS V14.01,2013-11-21 21:14:00,
2013-11-21 15:15:00,50.6,49.5,29.98,South,182,0.0,1.0,96,0.00,,BKN120,0.72,42.00,VWS V14.01,2013-11-21 21:15:00,
2013-11-21 15:19:00,50.5,49.4,29.98,ESE,107,0.0,3.0,96,0.00,,OVC028,0.72,39.00,VWS V14.01,2013-11-21 21:19:00,
2013-11-21 15:20:00,50.5,49.4,29.98,ESE,102,2.0,3.0,96,0.00,,BKN120,0.72,40.00,VWS V14.01,2013-11-21 21:20:00,
2013-11-21 15:24:00,50.5,49.4,29.98,ESE,104,0.0,2.0,96,0.00,,OVC028,0.72,49.00,VWS V14.01,2013-11-21 21:24:00,
2013-11-21 15:25:00,50.4,49.3,29.98,ESE,104,0.0,2.0,96,0.00,,BKN120,0.72,40.00,VWS V14.01,2013-11-21 21:25:00,
2013-11-21 15:30:00,50.4,49.3,29.98,ESE,104,0.0,0.0,96,0.00,,OVC028,0.72,35.00,VWS V14.01,2013-11-21 21:30:00,
2013-11-21 15:35:00,50.5,49.4,29.98,ESE,103,1.0,1.0,96,0.00,,OVC028,0.72,39.00,VWS V14.01,2013-11-21 21:35:00,
2013-11-21 15:40:00,50.5,49.4,29.98,ESE,109,0.0,1.0,96,0.00,,OVC028,0.72,30.00,VWS V14.01,2013-11-21 21:40:00,
2013-11-21 15:45:00,50.4,49.3,29.98,SSE,148,3.0,3.0,96,0.00,,OVC028,0.72,25.00,VWS V14.01,2013-11-21 21:45:00,
2013-11-21 15:50:00,50.4,49.3,29.98,SSE,150,0.0,1.0,96,0.00,,OVC028,0.72,28.00,VWS V14.01,2013-11-21 21:50:00,
2013-11-21 15:55:00,50.3,49.2,29.98,SE,146,0.0,2.0,96,0.00,,OVC028,0.72,25.00,VWS V14.01,2013-11-21 21:55:00,
2013-11-21 16:00:00,50.3,49.2,29.99,SE,146,0.0,1.0,96,0.00,,OVC028,0.72,21.00,VWS V14.01,2013-11-21 22:00:00,
2013-11-21 16:05:00,50.3,49.2,29.99,SE,146,0.0,1.0,96,0.00,,OVC012,0.72,18.00,VWS V14.01,2013-11-21 22:05:00,
2013-11-21 16:10:00,50.3,49.2,29.99,SE,146,0.0,0.0,96,0.00,,OVC012,0.72,14.00,VWS V14.01,2013-11-21 22:10:00,
2013-11-21 16:15:00,50.3,49.2,30.00,SE,131,0.0,3.0,96,0.00,,OVC012,0.72,11.00,VWS V14.01,2013-11-21 22:15:00,
2013-11-21 16:20:00,50.3,49.2,30.00,SE,131,0.0,0.0,96,0.00,,OVC012,0.72,7.00,VWS V14.01,2013-11-21 22:20:00,
2013-11-21 16:25:00,50.3,49.2,30.00,SE,131,0.0,0.0,96,0.00,,OVC012,0.72,5.00,VWS V14.01,2013-11-21 22:25:00,
2013-11-21 16:30:00,50.3,49.2,30.01,SE,131,0.0,0.0,96,0.00,,OVC012,0.72,5.00,VWS V14.01,2013-11-21 22:30:00,
2013-11-21 16:35:00,50.3,49.2,30.01,SE,131,0.0,0.0,96,0.00,,OVC011,0.72,0.00,VWS V14.01,2013-11-21 22:35:00,
2013-11-21 16:40:00,50.3,49.2,30.01,SE,131,0.0,0.0,96,0.00,,OVC011,0.72,0.00,VWS V14.01,2013-11-21 22:40:00,
2013-11-21 16:45:00,50.2,49.1,30.01,SE,131,0.0,0.0,96,0.00,,OVC011,0.72,0.00,VWS V14.01,2013-11-21 22:45:00,
2013-11-21 16:50:00,50.2,49.1,30.01,SE,131,0.0,0.0,96,0.00,,OVC011,0.72,0.00,VWS V14.01,2013-11-21 22:50:00,
2013-11-21 16:55:00,50.3,49.2,30.01,SE,131,0.0,0.0,96,0.00,,OVC011,0.72,0.00,VWS V14.01,2013-11-21 22:55:00,
2013-11-21 17:00:00,50.2,49.1,30.01,SE,131,0.0,0.0,96,0.00,,OVC011,0.72,0.00,VWS V14.01,2013-11-21 23:00:00,
2013-11-21 17:05:00,50.2,49.1,30.01,SE,131,0.0,0.0,96,0.00,,OVC012,0.72,0.00,VWS V14.01,2013-11-21 23:05:00,
2013-11-21 17:10:00,50.2,49.1,30.01,SE,131,0.0,0.0,96,0.00,,OVC012,0.72,0.00,VWS V14.01,2013-11-21 23:10:00,
2013-11-21 17:15:00,50.2,49.1,30.02,SE,131,0.0,0.0,96,0.00,,OVC012,0.72,0.00,VWS V14.01,2013-11-21 23:15:00,
2013-11-21 17:20:00,50.1,49.0,30.02,SE,131,0.0,0.0,96,0.00,,OVC012,0.72,0.00,VWS V14.01,2013-11-21 23:20:00,
2013-11-21 17:25:00,50.2,49.1,30.02,SE,131,0.0,0.0,96,0.00,,OVC012,0.72,0.00,VWS V14.01,2013-11-21 23:25:00,
2013-11-21 17:30:00,50.2,49.1,30.02,SE,131,0.0,0.0,96,0.00,,OVC012,0.72,0.00,VWS V14.01,2013-11-21 23:30:00,
2013-11-21 17:35:00,50.2,49.1,30.02,SE,131,0.0,0.0,96,0.00,,OVC024,0.72,0.00,VWS V14.01,2013-11-21 23:35:00,
2013-11-21 17:40:00,50.2,49.1,30.02,SE,131,0.0,0.0,96,0.00,,OVC024,0.72,0.00,VWS V14.01,2013-11-21 23:40:00,
2013-11-21 17:45:00,50.2,49.1,30.01,SE,134,0.0,1.0,96,0.00,,OVC024,0.72,0.00,VWS V14.01,2013-11-21 23:45:00,
2013-11-21 17:50:00,50.1,49.0,30.01,SE,134,0.0,0.0,96,0.00,,OVC024,0.72,0.00,VWS V14.01,2013-11-21 23:50:00,
2013-11-21 17:55:00,50.1,49.0,30.01,SE,134,1.0,2.0,96,0.00,,OVC024,0.72,0.00,VWS V14.01,2013-11-21 23:55:00,
2013-11-21 18:00:00,50.0,48.9,30.01,SE,134,0.0,2.0,96,0.00,,BKN120,0.72,0.00,VWS V14.01,2013-11-22 00:00:00,
2013-11-21 18:01:00,50.0,48.9,30.01,SE,134,0.0,2.0,96,0.00,,OVC024,0.72,0.00,VWS V14.01,2013-11-22 00:01:00,
2013-11-21 18:05:00,50.0,48.9,30.01,East,88,0.0,2.0,96,0.00,,BKN120,0.72,0.00,VWS V14.01,2013-11-22 00:05:00,
2013-11-21 18:06:00,50.0,48.9,30.01,East,88,0.0,2.0,96,0.00,,OVC024,0.72,0.00,VWS V14.01,2013-11-22 00:06:00,
2013-11-21 18:10:00,50.0,49.2,30.01,East,88,0.0,0.0,97,0.00,,BKN120,0.72,0.00,VWS V14.01,2013-11-22 00:10:00,
2013-11-21 18:11:00,50.0,49.2,30.01,East,88,0.0,0.0,97,0.00,,OVC024,0.72,0.00,VWS V14.01,2013-11-22 00:11:00,
2013-11-21 18:15:00,50.0,49.2,30.03,East,88,0.0,1.0,97,0.00,,BKN120,0.72,0.00,VWS V14.01,2013-11-22 00:15:00,
2013-11-21 18:16:00,50.0,49.2,30.03,East,88,0.0,1.0,97,0.00,,OVC024,0.72,0.00,VWS V14.01,2013-11-22 00:16:00,
2013-11-21 18:20:00,49.9,49.1,30.03,East,88,0.0,0.0,97,0.00,,BKN120,0.72,0.00,VWS V14.01,2013-11-22 00:20:00,
2013-11-21 18:21:00,49.9,49.1,30.03,East,88,0.0,0.0,97,0.00,,OVC024,0.72,0.00,VWS V14.01,2013-11-22 00:21:00,
2013-11-21 18:25:00,49.9,48.8,30.03,East,88,0.0,0.0,96,0.00,,BKN120,0.72,0.00,VWS V14.01,2013-11-22 00:25:00,
2013-11-21 18:26:00,49.9,48.8,30.03,East,88,0.0,0.0,96,0.00,,OVC024,0.72,0.00,VWS V14.01,2013-11-22 00:26:00,
2013-11-21 18:30:00,49.9,48.8,30.04,East,88,0.0,0.0,96,0.00,,BKN120,0.72,0.00,VWS V14.01,2013-11-22 00:30:00,
2013-11-21 18:31:00,49.9,48.8,30.04,East,88,0.0,0.0,96,0.00,,OVC024,0.72,0.00,VWS V14.01,2013-11-22 00:31:00,
2013-11-21 18:35:00,49.9,48.8,30.04,East,88,0.0,0.0,96,0.00,,BKN120,0.72,0.00,VWS V14.01,2013-11-22 00:35:00,
2013-11-21 18:36:00,49.9,48.8,30.04,East,88,0.0,0.0,96,0.00,,OVC023,0.72,0.00,VWS V14.01,2013-11-22 00:36:00,
2013-11-21 18:40:00,49.9,48.8,30.04,East,88,0.0,0.0,96,0.00,,BKN120,0.72,0.00,VWS V14.01,2013-11-22 00:40:00,
2013-11-21 18:41:00,49.9,48.8,30.04,East,88,0.0,0.0,96,0.00,,OVC023,0.72,0.00,VWS V14.01,2013-11-22 00:41:00,
2013-11-21 18:45:00,49.9,48.8,30.05,East,88,0.0,0.0,96,0.00,,BKN120,0.72,0.00,VWS V14.01,2013-11-22 00:45:00,
2013-11-21 18:46:00,49.9,48.8,30.05,East,88,0.0,0.0,96,0.00,,OVC023,0.72,0.00,VWS V14.01,2013-11-22 00:46:00,
2013-11-21 18:50:00,49.9,48.8,30.05,East,88,0.0,0.0,96,0.00,,BKN120,0.72,0.00,VWS V14.01,2013-11-22 00:50:00,
2013-11-21 18:51:00,49.9,48.8,30.05,East,88,0.0,0.0,96,0.00,,OVC023,0.72,0.00,VWS V14.01,2013-11-22 00:51:00,
2013-11-21 18:55:00,49.9,48.8,30.05,East,88,0.0,0.0,96,0.00,,BKN120,0.72,0.00,VWS V14.01,2013-11-22 00:55:00,
2013-11-21 18:56:00,49.9,48.8,30.05,East,88,0.0,0.0,96,0.00,,OVC023,0.72,0.00,VWS V14.01,2013-11-22 00:56:00,
2013-11-21 19:00:00,49.9,48.8,30.05,East,88,0.0,0.0,96,0.00,,BKN120,0.72,0.00,VWS V14.01,2013-11-22 01:00:00,
2013-11-21 19:01:00,49.9,48.8,30.05,East,88,0.0,0.0,96,0.00,,OVC012,0.72,0.00,VWS V14.01,2013-11-22 01:01:00,
2013-11-21 19:05:00,49.9,49.1,30.05,East,88,0.0,0.0,97,0.00,,BKN120,0.72,0.00,VWS V14.01,2013-11-22 01:05:00,
2013-11-21 19:06:00,49.9,49.1,30.05,East,88,0.0,0.0,97,0.00,,OVC012,0.72,0.00,VWS V14.01,2013-11-22 01:06:00,
2013-11-21 19:10:00,49.9,49.1,30.05,East,88,0.0,0.0,97,0.00,,BKN120,0.72,0.00,VWS V14.01,2013-11-22 01:10:00,
2013-11-21 19:11:00,49.9,49.1,30.05,East,88,0.0,0.0,97,0.00,,OVC012,0.72,0.00,VWS V14.01,2013-11-22 01:11:00,
2013-11-21 19:15:00,49.9,49.1,30.06,East,88,0.0,0.0,97,0.00,,BKN120,0.72,0.00,VWS V14.01,2013-11-22 01:15:00,
2013-11-21 19:16:00,49.9,49.1,30.06,East,88,0.0,0.0,97,0.00,,OVC012,0.72,0.00,VWS V14.01,2013-11-22 01:16:00,
2013-11-21 19:20:00,49.9,49.1,30.06,East,88,0.0,0.0,97,0.00,,BKN120,0.72,0.00,VWS V14.01,2013-11-22 01:20:00,
2013-11-21 19:25:00,49.9,49.1,30.06,East,88,0.0,0.0,97,0.00,,BKN120,0.72,0.00,VWS V14.01,2013-11-22 01:25:00,
2013-11-21 19:29:00,49.9,49.1,30.06,East,88,0.0,0.0,97,0.00,,OVC012,0.72,0.00,VWS V14.01,2013-11-22 01:29:00,
2013-11-21 19:30:00,49.9,49.1,30.06,East,88,0.0,0.0,97,0.00,,BKN120,0.72,0.00,VWS V14.01,2013-11-22 01:30:00,
2013-11-21 19:35:00,49.9,49.1,30.06,East,88,0.0,0.0,97,0.00,,BKN120,0.72,0.00,VWS V14.01,2013-11-22 01:35:00,
2013-11-21 19:39:00,49.9,49.1,30.06,East,88,0.0,0.0,97,0.00,,OVC012,0.72,0.00,VWS V14.01,2013-11-22 01:39:00,
2013-11-21 19:45:00,49.9,49.1,30.07,East,88,0.0,0.0,97,0.00,,BKN120,0.72,0.00,VWS V14.01,2013-11-22 01:45:00,
2013-11-21 19:50:00,49.9,49.1,30.07,East,88,0.0,0.0,97,0.00,,BKN120,0.72,0.00,VWS V14.01,2013-11-22 01:50:00,
2013-11-21 19:53:00,49.9,49.1,30.07,East,88,0.0,0.0,97,0.00,,OVC012,0.72,0.00,VWS V14.01,2013-11-22 01:53:00,
2013-11-21 19:55:00,49.9,49.1,30.07,East,88,0.0,0.0,97,0.00,,BKN120,0.72,0.00,VWS V14.01,2013-11-22 01:55:00,
2013-11-21 20:00:00,49.9,49.1,30.07,East,88,0.0,0.0,97,0.00,,OVC012,0.72,0.00,VWS V14.01,2013-11-22 02:00:00,
2013-11-21 20:06:00,49.9,49.1,30.07,East,88,0.0,0.0,97,0.00,,OVC012,0.72,0.00,VWS V14.01,2013-11-22 02:06:00,
2013-11-21 20:08:00,49.9,49.1,30.07,East,88,0.0,0.0,97,0.00,,OVC012,0.72,0.00,VWS V14.01,2013-11-22 02:08:00,
2013-11-21 20:11:00,49.9,49.1,30.07,East,88,0.0,0.0,97,0.00,,OVC012,0.72,0.00,VWS V14.01,2013-11-22 02:11:00,
2013-11-21 20:15:00,49.9,49.1,30.08,East,88,0.0,0.0,97,0.00,,BKN120,0.72,0.00,VWS V14.01,2013-11-22 02:15:00,
2013-11-21 20:20:00,49.9,49.1,30.08,East,88,0.0,0.0,97,0.00,,BKN120,0.72,0.00,VWS V14.01,2013-11-22 02:20:00,
2013-11-21 20:24:00,49.9,49.1,30.08,East,88,0.0,0.0,97,0.00,,OVC012,0.72,0.00,VWS V14.01,2013-11-22 02:24:00,
2013-11-21 20:25:00,49.9,49.1,30.08,East,88,0.0,0.0,97,0.00,,BKN120,0.72,0.00,VWS V14.01,2013-11-22 02:25:00,
2013-11-21 20:30:00,49.9,49.1,30.08,East,88,0.0,0.0,97,0.00,,BKN120,0.72,0.00,VWS V14.01,2013-11-22 02:30:00,
2013-11-21 20:35:00,49.9,49.1,30.08,East,88,0.0,0.0,97,0.00,,OVC012,0.72,0.00,VWS V14.01,2013-11-22 02:35:00,
2013-11-21 20:40:00,49.9,49.1,30.08,East,88,0.0,0.0,97,0.00,,BKN120,0.72,0.00,VWS V14.01,2013-11-22 02:40:00,
2013-11-21 20:45:00,49.9,49.1,30.09,East,88,0.0,0.0,97,0.00,,BKN120,0.72,0.00,VWS V14.01,2013-11-22 02:45:00,
2013-11-21 20:50:00,50.0,49.2,30.09,East,88,0.0,0.0,97,0.00,,BKN120,0.72,0.00,VWS V14.01,2013-11-22 02:50:00,
2013-11-21 20:54:00,49.9,49.1,30.09,East,88,0.0,0.0,97,0.00,,OVC012,0.72,0.00,VWS V14.01,2013-11-22 02:54:00,
2013-11-21 20:55:00,49.9,49.1,30.09,East,88,0.0,0.0,97,0.00,,BKN120,0.72,0.00,VWS V14.01,2013-11-22 02:55:00,
2013-11-21 21:00:00,50.0,49.2,30.10,East,88,0.0,0.0,97,0.00,,BKN120,0.72,0.00,VWS V14.01,2013-11-22 03:00:00,
2013-11-21 21:05:00,50.0,49.2,30.10,East,88,0.0,0.0,97,0.00,,BKN120,0.72,0.00,VWS V14.01,2013-11-22 03:05:00,
2013-11-21 21:08:00,50.0,49.2,30.10,East,88,0.0,0.0,97,0.00,,OVC012,0.72,0.00,VWS V14.01,2013-11-22 03:08:00,
2013-11-21 21:10:00,50.0,49.2,30.10,East,88,0.0,0.0,97,0.00,,BKN120,0.72,0.00,VWS V14.01,2013-11-22 03:10:00,
2013-11-21 21:15:00,50.0,49.2,30.10,East,88,0.0,0.0,97,0.00,,OVC012,0.72,0.00,VWS V14.01,2013-11-22 03:15:00,
2013-11-21 21:20:00,50.0,49.2,30.10,East,88,0.0,0.0,97,0.00,,BKN120,0.72,0.00,VWS V14.01,2013-11-22 03:20:00,
2013-11-21 21:25:00,50.0,49.2,30.10,East,88,0.0,0.0,97,0.00,,BKN120,0.72,0.00,VWS V14.01,2013-11-22 03:25:00,
2013-11-21 21:30:00,50.0,49.2,30.11,East,88,0.0,0.0,97,0.00,,BKN120,0.72,0.00,VWS V14.01,2013-11-22 03:30:00,
2013-11-21 21:35:00,50.0,49.2,30.11,East,87,0.0,1.0,97,0.00,,BKN120,0.72,0.00,VWS V14.01,2013-11-22 03:35:00,
2013-11-21 21:39:00,50.0,49.2,30.11,East,81,1.0,2.0,97,0.00,,,0.72,0.00,VWS V14.01,2013-11-22 03:39:00,
2013-11-21 21:40:00,50.0,49.2,30.11,East,81,0.0,2.0,97,0.00,,,0.72,0.00,VWS V14.01,2013-11-22 03:40:00,
2013-11-21 21:42:00,50.0,49.2,30.11,East,81,0.0,0.0,97,0.00,,,0.72,0.00,VWS V14.01,2013-11-22 03:42:00,
2013-11-21 21:45:00,50.0,49.2,30.11,East,81,0.0,0.0,97,0.00,,BKN120,0.72,0.00,VWS V14.01,2013-11-22 03:45:00,
2013-11-21 21:50:00,50.1,49.3,30.11,East,81,0.0,0.0,97,0.00,,BKN120,0.72,0.00,VWS V14.01,2013-11-22 03:50:00,
2013-11-21 21:51:00,50.1,49.3,30.11,East,81,0.0,0.0,97,0.00,,,0.72,0.00,VWS V14.01,2013-11-22 03:51:00,
2013-11-21 21:55:00,50.1,49.3,30.11,East,81,0.0,0.0,97,0.00,,BKN120,0.72,0.00,VWS V14.01,2013-11-22 03:55:00,
2013-11-21 22:00:00,50.0,49.2,30.11,East,81,0.0,1.0,97,0.00,,BKN120,0.72,0.00,VWS V14.01,2013-11-22 04:00:00,
2013-11-21 22:05:00,50.1,49.3,30.11,East,81,0.0,1.0,97,0.00,,BKN120,0.72,0.00,VWS V14.01,2013-11-22 04:05:00,
2013-11-21 22:10:00,50.1,49.3,30.11,East,81,0.0,0.0,97,0.00,,BKN120,0.72,0.00,VWS V14.01,2013-11-22 04:10:00,
2013-11-21 22:15:00,50.1,49.3,30.11,East,81,1.0,2.0,97,0.00,,BKN120,0.72,0.00,VWS V14.01,2013-11-22 04:15:00,
2013-11-21 22:20:00,50.0,49.2,30.11,WNW,302,2.0,6.0,97,0.00,,BKN120,0.72,0.00,VWS V14.01,2013-11-22 04:20:00,
2013-11-21 22:25:00,49.6,48.8,30.11,NW,323,1.0,6.0,97,0.00,,BKN120,0.72,0.00,VWS V14.01,2013-11-22 04:25:00,
2013-11-21 22:30:00,49.1,48.0,30.13,NW,321,0.0,2.0,96,0.00,,BKN120,0.72,0.00,VWS V14.01,2013-11-22 04:30:00,
2013-11-21 22:35:00,48.8,47.7,30.13,NNW,333,1.0,7.0,96,0.00,,BKN120,0.72,0.00,VWS V14.01,2013-11-22 04:35:00,
2013-11-21 22:40:00,48.5,47.4,30.13,NW,305,0.0,4.0,96,0.00,,BKN120,0.72,0.00,VWS V14.01,2013-11-22 04:40:00,
2013-11-21 22:45:00,48.2,47.1,30.13,WNW,288,0.0,2.0,96,0.00,,BKN120,0.72,0.00,VWS V14.01,2013-11-22 04:45:00,
2013-11-21 22:50:00,48.1,47.0,30.13,West,271,0.0,4.0,96,0.00,,BKN120,0.72,0.00,VWS V14.01,2013-11-22 04:50:00,
2013-11-21 22:55:00,47.8,46.7,30.13,NW,323,0.0,3.0,96,0.00,,BKN120,0.72,0.00,VWS V14.01,2013-11-22 04:55:00,
2013-11-21 23:00:00,47.7,46.6,30.15,NW,316,0.0,3.0,96,0.00,,BKN120,0.72,0.00,VWS V14.01,2013-11-22 05:00:00,
2013-11-21 23:05:00,47.5,46.4,30.15,NW,316,0.0,1.0,96,0.00,,BKN120,0.72,0.00,VWS V14.01,2013-11-22 05:05:00,
2013-11-21 23:10:00,47.4,46.3,30.15,NW,316,2.0,2.0,96,0.00,,BKN120,0.72,0.00,VWS V14.01,2013-11-22 05:10:00,
2013-11-21 23:15:00,47.2,46.1,30.15,WNW,302,0.0,3.0,96,0.00,,BKN120,0.72,0.00,VWS V14.01,2013-11-22 05:15:00,
2013-11-21 23:20:00,47.1,46.0,30.15,North,360,0.0,3.0,96,0.00,,BKN120,0.72,0.00,VWS V14.01,2013-11-22 05:20:00,
2013-11-21 23:25:00,46.9,45.8,30.15,NNW,339,0.0,2.0,96,0.00,,BKN120,0.72,0.00,VWS V14.01,2013-11-22 05:25:00,
2013-11-21 23:30:00,46.7,45.6,30.15,NNW,339,0.0,1.0,96,0.00,,BKN120,0.72,0.00,VWS V14.01,2013-11-22 05:30:00,
2013-11-21 23:35:00,46.6,45.5,30.15,NNW,339,0.0,3.0,96,0.00,,BKN120,0.72,0.00,VWS V14.01,2013-11-22 05:35:00,
2013-11-21 23:40:00,46.5,45.7,30.15,NNW,330,0.0,2.0,97,0.00,,BKN120,0.72,0.00,VWS V14.01,2013-11-22 05:40:00,
2013-11-21 23:45:00,46.4,45.3,30.15,NNE,23,0.0,4.0,96,0.00,,BKN120,0.72,0.00,VWS V14.01,2013-11-22 05:45:00,
2013-11-21 23:50:00,46.3,45.5,30.15,NNE,21,0.0,2.0,97,0.00,,BKN120,0.72,0.00,VWS V14.01,2013-11-22 05:50:00,
2013-11-21 23:55:00,46.0,44.9,30.15,NW,307,2.0,10.0,96,0.00,,BKN120,0.72,0.00,VWS V14.01,2013-11-22 05:55:00,